Regional Weather Roundup
Issued by NWS

Home | Current Version | Previous Version | Graphics & Text | Print | Product List | Glossary On
Versions: 1 2 3 4 5 6 7 8 9 10 11 12 13 14 15 16 17 18 19 20 21 22 23 24 25 26 27 28 29 30 31 32 33 34 35 36 37 38 39 40 41 42 43 44 45 46 47 48 49 50
000
ASUS43 KLMK 210410
RWRKY
KENTUCKY REGIONAL WEATHER ROUNDUP
NATIONAL WEATHER SERVICE LOUISVILLE KY
1100 PM EST SAT JAN 20 2018

NOTE "FAIR" INDICATES FEW OR NO CLOUDS BELOW 12,000 FEET
WITH NO SIGNIFICANT WEATHER AND/OR OBSTRUCTIONS TO VISIBILITY.

KYZ001>023-026-027-061>063-070>075-210500-
WESTERN AND SOUTH CENTRAL KENTUCKY

CITY           SKY/WX    TMP DP  RH WIND       PRES   REMARKS
PADUCAH        CLOUDY    48  41  76 SE6       30.07F
HENDERSON      CLOUDY    45  39  79 S8        30.09
OWENSBORO      CLOUDY    43  38  82 S8        30.11R
HOPKINSVILLE   CLOUDY    55  44  66 S8        30.11F
BOWLING GREEN  CLOUDY    54  38  54 SW7       30.15R
GLASGOW        CLOUDY    51  34  52 S6        30.15S
$$

KYZ024-025-028>034-038-045-046-053-210500-
NORTH CENTRAL KENTUCKY

CITY           SKY/WX    TMP DP  RH WIND       PRES   REMARKS
LOUISVILLE/SDF MOCLDY    51  40  65 S7        30.10F
LOUISVILLE/LOU CLOUDY    49  43  80 S7        30.11S
FORT KNOX      CLOUDY    49  39  70 S8        30.09F
$$

KYZ035>037-039>044-047>052-055>060-089>105-210500-
NORTHEAST KENTUCKY

CITY           SKY/WX    TMP DP  RH WIND       PRES   REMARKS
LEXINGTON      CLOUDY    48  39  71 S9        30.13F
COVINGTON      CLOUDY    45  44  97 S6        30.10S
FRANKFORT      FAIR      47  39  74 S5        30.11F
$$

KYZ054-064>069-076>088-106>120-210500-
SOUTHEAST KENTUCKY

CITY           SKY/WX    TMP DP  RH WIND       PRES   REMARKS
JACKSON        FAIR      48  36  63 S5        30.18R
LONDON         FAIR      41  33  73 SE3       30.19S
SOMERSET       CLOUDY    39  34  81 CALM      30.20S
MIDDLESBORO    MOCLDY    34  32  91 CALM      30.24R
MONTICELLO     FAIR      37  34  89 VRB7      30.21R WCI  32
$$





USA.gov is the U.S. government's official web portal to all federal, state and local government web resources and services.